Location: Fort Worth, Tx
(32.7431°N, 97.3695°W)
Time: 00:51:29
(UTC-04:00)

A-11 Canister half - Pass Details

Date: 26 February 2024
Orbit: 1525 x 1683 km, 47.3° (Epoch: 24 April)

Event Time Altitude Azimuth Distance (km) Brightness Sun altitude
Rises 22:50:53 0° 262° (W) 4,775 12.2 -43.6°
Reaches altitude 10° 22:54:15 10° 269° (W) 3,770 11.6 -44.3°
Enters shadow 23:02:24 43° 327° (NNW) 2,069 9.7 -45.9°
